Location: Wien
(48.2082°N, 16.3738°E)
Time: 02:46:32
(UTC+02:00)

MOZHAYETS 4 - Pass Details

Date: 27 April 2024
Orbit: 652 x 670 km, 98.3° (Epoch: 23 May)

Event Time Altitude Azimuth Distance (km) Brightness Sun altitude
Rises 03:57:55 0° 162° (SSE) 3,006 10.8 -15.4°
Reaches altitude 10° 04:00:08 10° 161° (SSE) 2,097 10.0 -15.1°
Maximum altitude 04:04:44 83° 74° (ENE) 684 7.8 -14.6°
Drops below altitude 10° 04:09:21 10° 347° (NNW) 2,111 10.7 -14.0°
Sets 04:11:35 0° 347° (NNW) 3,028 11.5 -13.7°
